Погода в Новосеславине

Россия / Тамбовская область     53°19′36″N   40°26′42″E
темп.,
°C
ветер,
м/с
пор.,
м/с
влажн.,
%
обл.,
%
осадки,
мм/ч
давл.,
гПа
погр.,
м
13 апреля, вт
вт1300:00+11юв4127432 0.0 1028198
03:00+9юв4127566 0.0 1028202
06:00+8вюв4127077 0.0 1028184
09:00+13юв6104995 0.0 1028367
12:00+19юв6103352 0.0 10271023
15:00+21юв8102598 0.0 10251928
18:00+19юв611350 0.0 1024373
21:00+14юв513484 0.0 1025303
14 апреля, ср
ср1400:00+11юв513560 0.0 1025262
03:00+9юв410650 0.0 1024171
06:00+8юв4107145 0.0 1023163
09:00+13юв594868 0.0 1022376
12:00+17юв6833100 0.0 1021901
15:00+19юв682811 0.0 10191742
18:00+18юв483489 0.0 1018246
21:00+13юв4115018 0.0 1019231
15 апреля, чт
чт1500:00+11юв3755100 0.0 1018112
03:00+10юв3560100 0.0 101875
06:00+9вюв3567100 0.0 101787
09:00+13вюв2357100 0.0 1016246
12:00+16юв2245100 0.0 1016741
15:00+19вюв3439100 0.0 10151373
18:00+18юв244494 0.0 1014114
21:00+14ююв22545 0.0 101522
16 апреля, пт
пт1600:00+12вюв336046 0.0 101422
03:00+12вюв3364100 0.0 101545
06:00+11в3472100 0.0 101572
09:00+14юв4664100 0.0 1015325
12:00+17ююв4547100 0.0 1016989
15:00+18юв3445100 0.0 10161534
18:00+17вюв115345 0.0 101628
21:00+12зюз477997 0.4 1017189
17 апреля, сб
сб1700:00+11ссв348389 0.1 101854
03:00+10всв487362 0.4 1018137
06:00+9всв41172100 0.0 1018244
09:00+13в71164100 0.0 1019533
12:00+18в8104434 0.0 10191522
15:00+18в8104498 0.0 10191620
18:00+16всв8115258 0.2 10191147
21:00+13всв7146157 0.4 1021588